Latest Weather Observations for Moorabbin Airport

IDV60801

Issued at 7:35 pm EDT Saturday 25 October 2014 (issued every 30 minutes, with the page automatically refreshed every 10 minutes)

About weather observations | Map of weather stations | Latest weather observations for VIC | Other Formats
Station Details ID: 086077 Name: MOORABBIN AIRPORT Lat: -37.98 Lon: 145.10 Height: 12.1 m
Data from the previous 72 hours. | See also: Recent months at Moorabbin Airport
Date/Time
EDT
Temp
°C
App
Temp
°C
Dew
Point
Rel
Hum
%
Delta-T
°C
Wind Press
QNH
hPa
Press
MSL
hPa
Rain
since 9 am
mm
Dir
 
Spd
km/h
Gust
km/h
Spd
kts
Gust
kts
25/07:30pm 15.3 12.0 9.4 68 3.0 S 17 22 9 12 1015.6 1015.6 0.0
25/07:00pm 15.7 12.1 9.8 68 3.1 S 19 28 10 15 1015.3 1015.3 0.0
25/06:30pm 16.8 13.4 10.4 66 3.4 SSE 19 24 10 13 1015.0 1015.0 0.0
25/06:00pm 17.4 13.5 10.8 65 3.5 S 22 28 12 15 1014.8 1014.8 0.0
25/05:30pm 17.4 13.3 11.4 68 3.3 SW 24 35 13 19 1014.8 1014.8 0.0
25/05:00pm 17.3 12.8 11.3 68 3.2 SSW 26 35 14 19 1014.7 1014.7 0.0
25/04:30pm 17.5 13.0 11.5 68 3.3 SW 26 33 14 18 1014.7 1014.7 0.0
25/04:00pm 16.8 12.5 10.6 67 3.3 SSW 24 32 13 17 1014.8 1014.8 0.0
25/03:30pm 17.5 13.2 10.9 65 3.6 SSW 24 28 13 15 1014.9 1014.9 0.0
25/03:00pm 17.0 13.5 10.8 67 3.3 SSW 20 26 11 14 1015.3 1015.3 0.0
25/02:30pm 16.7 13.2 10.8 68 3.2 SSW 20 28 11 15 1015.7 1015.7 0.0
25/02:00pm 16.6 13.6 10.5 67 3.2 SW 17 20 9 11 1016.0 1016.0 0.0
25/01:30pm 16.0 12.9 10.3 69 3.0 SSW 17 20 9 11 1016.1 1016.1 0.0
25/01:00pm 17.3 14.4 10.9 66 3.4 SW 17 22 9 12 1016.4 1016.4 0.0
25/12:30pm 16.5 14.2 10.4 67 3.2 SSW 13 24 7 13 1016.5 1016.5 0.0
25/12:00pm 16.8 14.4 11.3 70 3.0 SSW 15 19 8 10 1017.1 1017.1 0.0
25/11:30am 15.4 13.4 10.2 71 2.7 SSW 11 17 6 9 1017.5 1017.5 0.0
25/11:00am 15.2 12.8 10.0 71 2.7 SSW 13 19 7 10 1017.6 1017.6 0.0
25/10:30am 14.7 11.2 10.3 75 2.3 S 19 22 10 12 1017.6 1017.6 0.0
25/10:00am 14.7 11.2 10.3 75 2.3 S 19 22 10 12 1017.7 1017.7 0.0
25/09:30am 14.7 11.9 11.3 80 1.8 S 17 20 9 11 1017.6 1017.6 0.0
25/09:00am 14.8 12.9 10.6 76 2.2 SSE 11 17 6 9 1017.8 1017.8 0.0
25/08:30am 14.4 13.0 11.0 80 1.8 SE 9 13 5 7 1017.8 1017.8 0.0
25/08:00am 14.3 13.4 11.3 82 1.6 SE 7 9 4 5 1017.6 1017.6 0.0
25/07:30am 14.2 12.9 11.2 82 1.6 SSE 9 13 5 7 1017.3 1017.3 0.0
25/07:00am 14.1 12.7 10.9 81 1.7 SSW 9 13 5 7 1017.1 1017.1 0.0
25/06:30am 14.1 12.3 10.9 81 1.7 SSW 11 17 6 9 1017.0 1017.0 0.0
25/06:00am 14.0 11.9 11.2 83 1.5 SSW 13 15 7 8 1016.7 1016.7 0.0
25/05:30am 14.1 13.3 11.8 86 1.2 S 7 9 4 5 1016.6 1016.6 0.0
25/05:00am 14.0 13.3 12.0 88 1.1 S 7 11 4 6 1016.3 1016.3 0.0
25/04:30am 14.2 13.0 11.5 84 1.4 SSW 9 11 5 6 1016.2 1016.2 0.0
25/04:00am 14.2 12.6 11.7 85 1.3 SSW 11 15 6 8 1016.3 1016.3 0.0
25/03:30am 14.1 12.5 11.6 85 1.3 WSW 11 15 6 8 1016.2 1016.2 0.0
25/03:23am 14.1 12.6 11.8 86 1.2 W 11 17 6 9 1016.2 1016.2 0.0
25/03:01am 13.8 12.1 12.4 91 0.8 WSW 13 17 7 9 1016.3 1016.3 0.0
25/03:00am 13.8 12.1 12.4 91 0.8 WSW 13 17 7 9 1016.3 1016.3 0.0
25/02:30am 13.6 12.2 13.3 98 0.2 S 13 17 7 9 1016.5 1016.5 0.0
25/02:00am 13.9 11.5 12.5 91 0.8 SSW 17 20 9 11 1016.5 1016.5 0.0
25/01:53am 14.3 12.2 12.3 88 1.1 SSW 15 20 8 11 1016.5 1016.5 0.0
25/01:30am 14.7 12.5 12.0 84 1.5 SSW 15 20 8 11 1016.6 1016.6 0.0
25/01:00am 14.9 12.7 12.2 84 1.5 SSW 15 20 8 11 1016.6 1016.6 0.0
25/12:30am 15.1 13.7 12.1 82 1.6 SSW 11 15 6 8 1016.6 1016.6 0.0
25/12:00am 15.2 13.8 12.1 82 1.7 S 11 15 6 8 1016.5 1016.5 0.0
 
Date/Time
EDT
Temp
°C
App
Temp
°C
Dew
Point
Rel
Hum
%
Delta-T
°C
Wind Press
QNH
hPa
Press
MSL
hPa
Rain
since 9 am
mm
Dir
 
Spd
km/h
Gust
km/h
Spd
kts
Gust
kts
24/11:59pm 15.2 13.8 12.1 82 1.7 SSW 11 15 6 8 1016.5 1016.5 0.0
24/11:30pm 15.2 13.4 12.0 81 1.7 S 13 17 7 9 1016.3 1016.3 0.0
24/11:00pm 15.3 12.2 12.2 82 1.7 S 20 30 11 16 1016.4 1016.4 0.0
24/10:30pm 15.1 12.2 12.4 84 1.5 SSW 19 26 10 14 1016.0 1016.0 0.0
24/10:00pm 15.1 12.1 12.6 85 1.4 SSW 20 28 11 15 1015.6 1015.6 0.0
24/09:30pm 15.3 12.4 12.8 85 1.4 SSW 20 30 11 16 1015.2 1015.2 0.0
24/09:00pm 15.4 11.8 13.1 86 1.3 SSW 24 35 13 19 1014.3 1014.3 0.0
24/08:34pm 15.6 11.0 13.4 87 1.2 SSW 30 39 16 21 1013.6 1013.6 0.0
24/08:30pm 15.6 11.1 13.8 89 1.0 SSW 30 37 16 20 1013.5 1013.5 0.0
24/08:26pm 15.6 11.1 13.8 89 1.0 SSW 30 41 16 22 1013.4 1013.4 0.0
24/08:01pm 15.6 12.5 14.6 94 0.6 SSW 24 35 13 19 1012.8 1012.8 0.0
24/08:00pm 15.6 12.5 14.5 93 0.6 SSW 24 35 13 19 1012.7 1012.7 0.0
24/07:57pm 15.7 12.6 14.4 92 0.7 SSW 24 41 13 22 1012.8 1012.8 0.0
24/07:30pm 17.3 12.6 14.2 82 1.8 SSW 32 39 17 21 1011.8 1011.8 0.0
24/07:00pm 19.1 16.0 14.4 74 2.7 SW 24 33 13 18 1011.3 1011.3 0.0
24/06:30pm 22.2 20.1 15.3 65 4.1 SW 20 30 11 16 1010.5 1010.5 0.0
24/06:00pm 24.2 21.6 13.7 52 6.2 SSW 20 26 11 14 1010.0 1010.0 0.0
24/05:30pm 26.3 23.5 12.7 43 7.9 SSW 19 26 10 14 1009.7 1009.7 0.0
24/05:00pm 27.1 25.3 12.0 39 8.7 SSW 13 17 7 9 1009.5 1009.5 0.0
24/04:30pm 28.7 27.8 12.6 37 9.4 SW 9 15 5 8 1009.5 1009.5 0.0
24/04:00pm 28.1 25.6 11.2 35 9.7 SW 15 22 8 12 1009.8 1009.8 0.0
24/03:30pm 27.6 25.5 12.4 39 8.8 SW 15 22 8 12 1010.0 1010.0 0.0
24/03:00pm 27.4 26.6 14.1 44 7.9 WSW 11 17 6 9 1010.0 1010.0 0.0
24/02:30pm 25.9 23.6 14.1 48 7.0 SW 19 26 10 14 1010.4 1010.4 0.0
24/02:00pm 26.6 25.4 14.0 46 7.5 WSW 13 20 7 11 1010.5 1010.5 0.0
24/01:30pm 25.4 24.7 14.2 50 6.6 WSW 11 22 6 12 1010.7 1010.7 0.0
24/01:00pm 22.3 22.3 15.2 64 4.2 SW 9 15 5 8 1011.0 1011.0 0.0
24/12:30pm 22.2 22.6 15.3 65 4.1 SW 7 17 4 9 1011.1 1011.1 0.0
24/12:00pm 20.1 19.1 14.7 71 3.2 SW 13 17 7 9 1011.4 1011.4 0.0
24/11:30am 19.6 17.9 14.6 73 2.9 SW 17 22 9 12 1011.6 1011.6 0.0
24/11:00am 20.3 19.3 14.7 70 3.3 SSW 13 19 7 10 1011.5 1011.5 0.0
24/10:30am 19.5 19.2 14.5 73 2.9 SSW 9 13 5 7 1011.6 1011.6 0.0
24/10:00am 20.6 21.4 14.7 69 3.5 E 4 7 2 4 1011.7 1011.7 0.0
24/09:30am 18.9 19.9 14.4 75 2.6 E 2 9 1 5 1011.7 1011.7 0.0
24/09:00am 17.0 17.2 14.1 83 1.7 N 6 9 3 5 1012.2 1012.2 0.0
24/08:53am 16.8 16.9 14.4 86 1.4 N 7 9 4 5 1012.3 1012.3 0.0
24/08:30am 15.7 15.4 14.4 92 0.7 N 9 11 5 6 1012.2 1012.2 0.0
24/08:00am 14.8 14.0 14.0 95 0.5 N 11 15 6 8 1012.2 1012.2 0.0
24/07:38am 15.0 14.8 14.7 98 0.2 N 9 11 5 6 1012.4 1012.4 0.0
24/07:30am 14.8 14.6 14.8 100 0.0 N 9 11 5 6 1012.4 1012.4 0.0
24/07:22am 14.5 14.8 14.5 100 0.0 N 6 9 3 5 1012.3 1012.3 0.0
24/07:10am 13.9 15.1 13.7 99 0.1 CALM 0 0 0 0 1012.3 1012.3 0.0
24/07:00am 13.3 14.3 13.1 99 0.1 CALM 0 0 0 0 1012.4 1012.4 0.0
24/06:34am 12.8 13.6 12.6 99 0.1 CALM 0 0 0 0 1012.4 1012.4 0.0
24/06:32am 12.7 13.5 12.4 98 0.2 CALM 0 0 0 0 1012.4 1012.4 0.0
24/06:30am 12.5 13.2 12.2 98 0.2 CALM 0 0 0 0 1012.5 1012.5 0.0
24/06:00am 12.5 13.2 12.2 98 0.2 CALM 0 0 0 0 1012.4 1012.4 0.0
24/05:56am 12.5 13.2 12.2 98 0.2 CALM 0 0 0 0 1012.4 1012.4 0.0
24/05:30am 12.8 12.4 12.5 98 0.2 N 6 7 3 4 1012.4 1012.4 0.0
24/05:27am 13.2 13.0 12.9 98 0.2 N 6 7 3 4 1012.4 1012.4 0.0
24/05:00am 13.0 12.7 12.7 98 0.2 NNW 6 9 3 5 1012.5 1012.5 0.0
24/04:30am 13.1 12.5 12.3 95 0.4 N 7 9 4 5 1012.4 1012.4 0.0
24/04:00am 13.7 13.3 12.9 95 0.4 NNW 7 9 4 5 1012.7 1012.7 0.0
24/03:30am 13.9 13.6 12.8 93 0.6 N 6 7 3 4 1012.7 1012.7 0.0
24/03:00am 13.8 12.9 12.7 93 0.6 ENE 9 11 5 6 1012.9 1012.9 0.0
24/02:30am 12.9 11.9 11.1 89 0.9 NE 7 9 4 5 1013.5 1013.5 0.0
24/02:00am 13.9 13.7 11.9 88 1.1 NE 4 6 2 3 1013.9 1013.9 0.0
24/01:30am 14.3 13.6 12.0 86 1.2 NE 7 11 4 6 1014.1 1014.1 0.0
24/01:00am 15.1 14.2 12.6 85 1.4 NE 9 9 5 5 1014.4 1014.4 0.0
24/12:30am 15.4 14.5 12.7 84 1.5 ENE 9 15 5 8 1014.6 1014.6 0.0
24/12:00am 15.5 13.6 13.0 85 1.4 ESE 15 22 8 12 1014.8 1014.8 0.0
 
Date/Time
EDT
Temp
°C
App
Temp
°C
Dew
Point
Rel
Hum
%
Delta-T
°C
Wind Press
QNH
hPa
Press
MSL
hPa
Rain
since 9 am
mm
Dir
 
Spd
km/h
Gust
km/h
Spd
kts
Gust
kts
23/11:30pm 15.7 13.0 13.0 84 1.5 ESE 19 30 10 16 1014.9 1014.9 0.0
23/11:00pm 15.9 12.7 13.0 83 1.6 ESE 22 28 12 15 1015.1 1015.1 0.0
23/10:30pm 15.9 12.3 13.0 83 1.6 ESE 24 32 13 17 1015.2 1015.2 0.0
23/10:00pm 16.2 12.2 13.1 82 1.7 ESE 26 35 14 19 1015.3 1015.3 0.0
23/09:30pm 16.1 11.7 12.8 81 1.8 ESE 28 39 15 21 1015.2 1015.2 0.0
23/09:00pm 16.1 10.9 12.8 81 1.8 ESE 32 41 17 22 1015.0 1015.0 0.0
23/08:30pm 16.3 11.2 13.0 81 1.8 ESE 32 41 17 22 1014.9 1014.9 0.0
23/08:00pm 16.4 11.1 13.1 81 1.8 ESE 33 43 18 23 1014.9 1014.9 0.0
23/07:30pm 16.9 10.9 13.2 79 2.1 SE 37 48 20 26 1015.1 1015.1 0.0
23/07:00pm 17.8 12.2 13.3 75 2.5 ESE 35 54 19 29 1015.0 1015.0 0.0
23/06:30pm 18.6 13.1 13.7 73 2.8 SE 35 50 19 27 1015.1 1015.1 0.0
23/06:00pm 19.4 14.0 14.0 71 3.1 SE 35 44 19 24 1015.1 1015.1 0.0
23/05:30pm 20.0 14.3 14.1 69 3.4 ESE 37 46 20 25 1015.2 1015.2 0.0
23/05:00pm 20.7 15.8 14.4 67 3.7 SE 33 46 18 25 1015.3 1015.3 0.0
23/04:30pm 20.8 16.1 14.2 66 3.8 SE 32 43 17 23 1015.6 1015.6 0.0
23/04:00pm 21.6 17.0 14.7 65 4.1 SE 32 43 17 23 1015.9 1015.9 0.0
23/03:30pm 20.7 16.7 14.1 66 3.8 SE 28 41 15 22 1016.5 1016.5 0.0
23/03:00pm 21.1 17.4 14.0 64 4.1 SE 26 35 14 19 1016.8 1016.8 0.0
23/02:30pm 19.6 16.1 13.3 67 3.6 ESE 24 35 13 19 1017.4 1017.4 0.0
23/02:00pm 19.2 16.5 13.4 69 3.3 ESE 20 32 11 17 1017.8 1017.8 0.0
23/01:30pm 18.4 16.1 13.0 71 3.0 SE 17 24 9 13 1018.3 1018.3 0.0
23/01:00pm 17.5 15.1 12.8 74 2.6 SE 17 20 9 11 1018.9 1018.9 0.0
23/12:31pm 16.5 13.7 12.5 77 2.2 SE 19 24 10 13 1019.2 1019.2 0.0
23/12:30pm 16.4 13.3 12.2 76 2.3 SE 20 24 11 13 1019.2 1019.2 0.0
23/12:00pm 16.5 14.8 12.3 76 2.3 SE 13 19 7 10 1019.8 1019.8 0.0
23/11:30am 15.9 14.4 11.9 77 2.2 SSE 11 19 6 10 1019.9 1019.9 0.0
23/11:00am 16.4 13.9 11.2 71 2.8 SSE 15 20 8 11 1020.3 1020.3 0.0
23/10:30am 15.6 13.7 11.8 78 2.1 ESE 13 17 7 9 1020.3 1020.3 0.0
23/10:06am 15.5 13.6 11.9 79 2.0 ESE 13 15 7 8 1020.5 1020.5 0.0
23/10:00am 15.6 14.1 12.0 79 2.0 E 11 15 6 8 1020.4 1020.4 0.0
23/09:30am 15.3 13.5 12.2 82 1.7 ESE 13 17 7 9 1020.4 1020.4 0.0
23/09:00am 15.2 13.5 12.3 83 1.6 ESE 13 17 7 9 1020.3 1020.3 0.0
23/08:47am 15.1 13.3 12.2 83 1.6 SE 13 17 7 9 1020.4 1020.4 0.0
23/08:30am 15.1 13.4 12.4 84 1.5 SE 13 17 7 9 1020.4 1020.4 0.0
23/08:00am 15.0 13.3 12.5 85 1.4 SE 13 17 7 9 1020.1 1020.1 0.0
23/07:30am 14.9 14.1 12.8 87 1.2 SSW 9 15 5 8 1020.1 1020.1 0.0
23/07:00am 14.9 14.4 12.6 86 1.3 S 7 11 4 6 1019.8 1019.8 0.0
23/06:30am 14.9 13.6 12.6 86 1.3 SSE 11 15 6 8 1019.4 1019.4 0.0
23/06:00am 15.1 13.3 13.3 89 1.0 SSW 15 20 8 11 1019.2 1019.2 0.0
23/05:30am 15.0 12.8 13.2 89 1.0 SSW 17 20 9 11 1018.7 1018.7 0.0
23/05:00am 15.1 13.7 13.5 90 0.9 SW 13 19 7 10 1018.5 1018.5 0.0
23/04:30am 15.1 13.7 13.5 90 0.9 SW 13 20 7 11 1018.3 1018.3 0.0
23/04:00am 14.9 13.1 13.4 91 0.8 SW 15 20 8 11 1018.3 1018.3 0.0
23/03:30am 14.8 13.4 13.5 92 0.7 SW 13 19 7 10 1018.6 1018.6 0.0
23/03:00am 14.8 13.1 13.5 92 0.7 SW 15 20 8 11 1018.8 1018.8 0.0
23/02:30am 14.8 13.1 13.5 92 0.7 SW 15 20 8 11 1019.0 1019.0 0.0
23/02:00am 15.0 13.3 13.7 92 0.7 WSW 15 20 8 11 1019.1 1019.1 0.0
23/01:30am 15.0 12.3 13.5 91 0.8 SW 20 30 11 16 1019.2 1019.2 0.0
23/01:05am 15.3 13.7 13.8 91 0.8 WSW 15 22 8 12 1019.0 1019.0 0.0
23/01:00am 15.2 13.5 13.7 91 0.8 WSW 15 22 8 12 1018.8 1018.8 0.0
23/12:30am 15.2 16.2 13.2 88 1.1 CALM 0 0 0 0 1018.3 1018.3 0.0
23/12:28am 15.3 16.4 13.5 89 1.0 CALM 0 6 0 3 1018.4 1018.4 0.0
23/12:00am 15.3 11.8 13.5 89 1.0 SSW 24 37 13 20 1018.7 1018.7 0.0
 
Date/Time
EDT
Temp
°C
App
Temp
°C
Dew
Point
Rel
Hum
%
Delta-T
°C
Wind Press
QNH
hPa
Press
MSL
hPa
Rain
since 9 am
mm
Dir
 
Spd
km/h
Gust
km/h
Spd
kts
Gust
kts
22/11:30pm 15.4 11.6 13.6 89 1.0 SW 26 35 14 19 1019.2 1019.2 0.0
22/11:00pm 15.5 12.9 13.7 89 1.0 SW 20 30 11 16 1018.5 1018.5 0.0
22/10:30pm 15.8 13.2 13.8 88 1.1 WSW 20 28 11 15 1018.6 1018.6 0.0
22/10:24pm 16.0 13.0 13.8 87 1.2 WSW 22 35 12 19 1018.7 1018.7 0.0
22/10:00pm 16.7 13.3 13.6 82 1.7 WSW 24 35 13 19 1018.2 1018.2 0.0
22/09:30pm 18.7 16.0 13.6 72 2.9 WSW 20 30 11 16 1017.5 1017.5 0.0
22/09:00pm 22.8 22.1 13.3 55 5.5 SSW 9 24 5 13 1016.6 1016.6 0.0
22/08:30pm 24.5 22.4 12.5 47 6.9 WSW 15 26 8 14 1015.6 1015.6 0.0
22/08:00pm 26.9 25.8 11.8 39 8.7 N 9 13 5 7 1014.7 1014.7 0.0

Other Formats:

Comma delimited format used in spreadsheet applications
http://www.bom.gov.au/fwo/IDV60801/IDV60801.94870.axf

JavaScript Object Notation format (JSON) in row-major order
http://www.bom.gov.au/fwo/IDV60801/IDV60801.94870.json